Weather History for Fort Lauderdale, FL

Change the Weather History Date:

Friday, January 24, 2014

  Actual Average Record
Temperature  
Mean Temperature 62 °F -  
Max Temperature 70 °F 77 °F 83 °F (1957)
Min Temperature 55 °F 59 °F 35 °F (1960)
Degree Days  
Heating Degree Days 2    
Growing Degree Days 12 (Base 50)    
Moisture  
Dew Point 50 °F    
Average Humidity 68    
Maximum Humidity 83    
Minimum Humidity 49    
Precipitation  
Precipitation 0.00 in - - ()
Sea Level Pressure  
Sea Level Pressure 30.29 in    
Wind  
Wind Speed 7 mph (North)    
Max Wind Speed 13 mph    
Max Gust Speed 22 mph    
Visibility 10 miles    
Events      
Averages and records for this station are not official NWS values.
T = Trace of Precipitation, MM = Missing Value Source: NWS Daily Summary

Daily Weather History Graph

Daily Weather History Graph

Search for Another Location

Airport:

Trip Planner

Search our weather history database for the weather conditions in past years. The results will help you decide how hot, cold, wet, or windy it might be!

Date:

Astronomy

Jan. 24, 2014 Rise Set
Actual Time 7:08 AM EST 5:57 PM EST
Civil Twilight 6:43 AM EST 6:22 PM EST
Nautical Twilight 6:15 AM EST 6:50 PM EST
Astronomical Twilight 5:48 AM EST 7:17 PM EST
Moon 12:42 AM EST (1/24) 12:09 PM EST (1/24)
Length of Visible Light 11h 38m
Length of Day
10h 49m
Last Quarter, 45% of the Moon is Illuminated
Jan 24
Last Quarter
Jan 30
New
Feb 6
First Quarter
Feb 14
Full
Feb 22
Last Quarter

Hourly Weather History & Observations

Time (EST) Temp. Dew Point Humidity Pressure Visibility Wind Dir Wind Speed Gust Speed Precip Events Conditions
12:53 AM 57.0 °F 51.1 °F 81% 30.29 in 10.0 mi NNW 3.5 mph - N/A   Clear
1:53 AM 57.9 °F 51.1 °F 78% 30.29 in 10.0 mi NNW 6.9 mph - N/A   Clear
2:53 AM 57.0 °F 52.0 °F 83% 30.28 in 10.0 mi NNW 5.8 mph - N/A   Clear
3:53 AM 57.0 °F 51.1 °F 81% 30.27 in 10.0 mi North 6.9 mph - N/A   Clear
4:53 AM 57.0 °F 51.1 °F 81% 30.27 in 10.0 mi NNW 6.9 mph - N/A   Clear
5:53 AM 55.9 °F 50.0 °F 80% 30.29 in 10.0 mi NNW 6.9 mph - N/A   Clear
6:53 AM 57.0 °F 50.0 °F 77% 30.31 in 10.0 mi North 6.9 mph - N/A   Clear
7:53 AM 57.9 °F 50.0 °F 75% 30.34 in 10.0 mi North 8.1 mph 16.1 mph N/A   Partly Cloudy
8:53 AM 62.1 °F 48.9 °F 62% 30.35 in 10.0 mi North 8.1 mph 18.4 mph N/A   Scattered Clouds
9:53 AM 64.9 °F 48.0 °F 54% 30.38 in 10.0 mi North 11.5 mph 20.7 mph N/A   Scattered Clouds
10:53 AM 64.9 °F 51.1 °F 61% 30.38 in 10.0 mi NNW 11.5 mph 21.9 mph N/A   Scattered Clouds
11:53 AM 68.0 °F 51.1 °F 55% 30.35 in 10.0 mi North 12.7 mph 19.6 mph N/A   Scattered Clouds
12:53 PM 70.0 °F 50.0 °F 49% 30.30 in 10.0 mi NNE 9.2 mph 17.3 mph N/A   Scattered Clouds
1:53 PM 70.0 °F 50.0 °F 49% 30.27 in 10.0 mi North 9.2 mph - N/A   Scattered Clouds
2:53 PM 70.0 °F 50.0 °F 49% 30.25 in 10.0 mi North 10.4 mph - N/A   Scattered Clouds
3:53 PM 68.0 °F 50.0 °F 52% 30.24 in 10.0 mi NNE 9.2 mph - N/A   Clear
4:53 PM 68.0 °F 52.0 °F 56% 30.24 in 10.0 mi North 11.5 mph 19.6 mph N/A   Partly Cloudy
5:53 PM 64.9 °F 52.0 °F 63% 30.25 in 10.0 mi North 8.1 mph - N/A   Scattered Clouds
6:53 PM 62.1 °F 51.1 °F 67% 30.25 in 10.0 mi North 5.8 mph - N/A   Partly Cloudy
7:53 PM 60.1 °F 50.0 °F 69% 30.26 in 10.0 mi NNW 8.1 mph - N/A   Partly Cloudy
8:53 PM 59.0 °F 50.0 °F 72% 30.26 in 10.0 mi North 6.9 mph - N/A   Scattered Clouds
9:53 PM 57.9 °F 50.0 °F 75% 30.26 in 10.0 mi NNW 6.9 mph - N/A   Partly Cloudy
10:53 PM 57.0 °F 50.0 °F 77% 30.25 in 10.0 mi NNW 6.9 mph - N/A   Clear
11:53 PM 55.9 °F 50.0 °F 80% 30.24 in 10.0 mi NNW 5.8 mph - N/A   Scattered Clouds